sat.trackr.live / text

‹ back to catalog

FLOCK 4H-7

NORAD 66710 · 2025-276AW

PAYLOAD ACTIVE UNKNOWN

§ Identity

Operator
Country
US
Launch date
2025-11-28
Launch site
AFWTR
Launch vehicle
Mass (kg)
RCS (m²)

Purposes: earth_obs

External: N2YO · Heavens-Above · Gunter

§ Orbital elements

Epoch: 2026-09-19T22:51:09.044064Z

Period
94.67 min
Inclination
97.4106°
Eccentricity
0.0003641
Mean motion
15.21109069 rev/d
Perigee alt
500.0 km
Apogee alt
505.0 km
Semi-major
6,880.6 km
B*
2.2255e-4
RAAN
334.9461°
Arg perigee
73.5337°
Mean anomaly
286.6299°
Rev number
4,482

§ Raw data

FLOCK 4H-71 66710U 25276AW  26262.95218801  .00004882  00000+0  22255-3 0  99942 66710  97.4106 334.9461 0003641  73.5337 286.6299 15.21109069 44825

JSON: /api/v1/satellites/66710 · /tle

For live sub-satellite position, see the globe view (requires WebGL).

§ Visibility from observer

Set your observer location to see the next 7 days of passes ≥ 10°. The values pass through the URL so the page stays shareable.

No JS? Fill the form by hand. The geolocation button needs JavaScript.